Powrót do katalogu

SL-16 DEB

AktywnyLEO
NORAD 22545·DEBRIS·🇷🇺 Russia

Wystrzelony Dec 25, 1992 z Baikonur Cosmodrome

Loading…

Następne Przeloty (najbliższe 24 godziny)

TLE

ŚwieżeSource: Space-Track

Epoka: Sep 13, 2026, 05:39 UTC

1 22545U 92093HF  26256.23551597  .00000218  00000-0  26557-3 0  9998
2 22545  71.5631 339.5327 0383647  99.6171 264.8474 13.46808805634291

Śledź SL-16 DEB w czasie rzeczywistym z AllMySat

Download on the App Store